Weather History for Albany, NY

Change the Weather History Date:

Thursday, November 8, 2012

  Actual Average Record
Temperature  
Mean Temperature 40 °F 42 °F  
Max Temperature 45 °F 51 °F 75 °F (1975)
Min Temperature 34 °F 34 °F 18 °F (1971)
Degree Days  
Heating Degree Days 25 23  
Month to date heating degree days 213 174  
Since 1 July heating degree days 699 819  
Cooling Degree Days 0 0  
Month to date cooling degree days 0 0  
Year to date cooling degree days 814 598  
Moisture  
Dew Point 24 °F    
Average Humidity 59    
Maximum Humidity 69    
Minimum Humidity 49    
Precipitation  
Precipitation 0.00 in 0.11 in 1.50 in (1947)
Month to date precipitation 0.05 0.90  
Year to date precipitation 32.12 34.03  
Snow  
Snow 0.00 in 0.00 in 1.70 in (1894)
Month to date snowfall 0.1 0.3  
Since 1 July snowfall 0.1 0.3  
Since 1 September snowfall 0.1 0.3  
Snow Depth 0.00 in    
Sea Level Pressure  
Sea Level Pressure 29.91 in    
Wind  
Wind Speed 11 mph (North)    
Max Wind Speed 20 mph    
Max Gust Speed 25 mph    
Visibility 10 miles    
Events      
T = Trace of Precipitation, MM = Missing Value Source: NWS Daily Summary

Daily Weather History Graph

Daily Weather History Graph

Search for Another Location

Airport:

Trip Planner

Search our weather history database for the weather conditions in past years. The results will help you decide how hot, cold, wet, or windy it might be!

Date:

Astronomy

Nov. 08, 2012 Rise Set
Actual Time 6:38 AM EST 4:38 PM EST
Civil Twilight 6:08 AM EST 5:08 PM EST
Nautical Twilight 5:34 AM EST 5:42 PM EST
Astronomical Twilight 5:01 AM EST 6:15 PM EST
Moon 12:23 AM EST (11/8) 1:25 PM EST (11/8)
Length of Visible Light 10h 59m
Length of Day
10h 00m
Waning Crescent, 33% of the Moon is Illuminated
Nov 8
Waning Crescent
Nov 13
New
Nov 20
First Quarter
Nov 28
Full
Dec 6
Last Quarter

Hourly Weather History & Observations

Time (EST) Temp. Windchill Dew Point Humidity Pressure Visibility Wind Dir Wind Speed Gust Speed Precip Events Conditions
12:51 AM 34.0 °F 28.8 °F 23.0 °F 64% 29.94 in 10.0 mi North 5.8 mph - N/A   Overcast
1:51 AM 34.0 °F 28.0 °F 24.1 °F 67% 29.92 in 10.0 mi North 6.9 mph - N/A   Overcast
2:51 AM 34.0 °F 28.8 °F 21.9 °F 61% 29.90 in 10.0 mi North 5.8 mph - N/A   Overcast
3:51 AM 34.0 °F 27.2 °F 21.0 °F 59% 29.89 in 10.0 mi North 8.1 mph - N/A   Overcast
4:51 AM 34.0 °F 26.6 °F 21.0 °F 59% 29.89 in 10.0 mi North 9.2 mph - N/A   Overcast
5:51 AM 34.0 °F 26.6 °F 21.9 °F 61% 29.90 in 10.0 mi North 9.2 mph - N/A   Overcast
6:51 AM 34.0 °F 26.0 °F 21.9 °F 61% 29.90 in 10.0 mi North 10.4 mph - N/A   Overcast
7:51 AM 35.1 °F 27.4 °F 21.9 °F 59% 29.91 in 10.0 mi North 10.4 mph - N/A   Overcast
8:51 AM 37.0 °F 28.9 °F 23.0 °F 57% 29.91 in 10.0 mi North 12.7 mph - N/A   Overcast
9:51 AM 37.0 °F 28.1 °F 23.0 °F 57% 29.90 in 10.0 mi North 15.0 mph - N/A   Overcast
10:51 AM 39.0 °F 32.8 °F 24.1 °F 55% 29.89 in 10.0 mi NNE 9.2 mph 18.4 mph N/A   Mostly Cloudy
11:51 AM 42.1 °F 33.6 °F 24.1 °F 49% 29.87 in 10.0 mi North 18.4 mph 25.3 mph N/A   Mostly Cloudy
12:51 PM 44.1 °F 36.8 °F 26.1 °F 49% 29.87 in 10.0 mi North 16.1 mph 21.9 mph N/A   Mostly Cloudy
1:51 PM 45.0 °F 38.2 °F 26.1 °F 48% 29.86 in 10.0 mi NNE 15.0 mph 20.7 mph N/A   Mostly Cloudy
2:51 PM 43.0 °F 36.8 °F 26.1 °F 51% 29.87 in 10.0 mi NNE 11.5 mph - N/A   Mostly Cloudy
3:51 PM 39.9 °F 32.1 °F 27.0 °F 60% 29.89 in 10.0 mi NE 13.8 mph - N/A   Mostly Cloudy
4:51 PM 37.9 °F 30.9 °F 27.0 °F 65% 29.91 in 10.0 mi NNE 10.4 mph - N/A   Mostly Cloudy
5:51 PM 37.9 °F 32.1 °F 27.0 °F 65% 29.94 in 10.0 mi North 8.1 mph - N/A   Overcast
6:51 PM 37.9 °F 33.5 °F 27.0 °F 65% 29.96 in 10.0 mi NNW 5.8 mph - N/A   Overcast
7:51 PM 39.0 °F 31.4 °F 26.1 °F 60% 29.96 in 10.0 mi NNW 12.7 mph 19.6 mph N/A   Overcast
8:51 PM 39.0 °F 30.6 °F 26.1 °F 60% 29.96 in 10.0 mi NNW 15.0 mph - N/A   Overcast
9:51 PM 39.0 °F 31.4 °F 25.0 °F 57% 29.97 in 10.0 mi NW 12.7 mph - N/A   Overcast
10:51 PM 37.0 °F 28.9 °F 24.1 °F 59% 29.97 in 10.0 mi NW 12.7 mph 18.4 mph N/A   Mostly Cloudy
11:51 PM 34.0 °F 26.6 °F 24.1 °F 67% 29.97 in 10.0 mi NW 9.2 mph - N/A   Scattered Clouds